Weather History for KCOM - January, 2014

Change the Weather History Date:

Saturday, January 18, 2014

  Actual Average (KABI) Record (KABI)
Temperature  
Mean Temperature 48 °F 45 °F  
Max Temperature 69 °F 57 °F 81 °F (1964)
Min Temperature 27 °F 33 °F -2 °F (1930)
Degree Days  
Heating Degree Days 17 20  
Month to date heating degree days 370  
Since 1 July heating degree days 1415  
Cooling Degree Days 0 0  
Month to date cooling degree days 0  
Year to date cooling degree days 0  
Moisture  
Dew Point 24 °F    
Average Humidity 41    
Maximum Humidity 69    
Minimum Humidity 22    
Precipitation  
Precipitation 0.00 in 0.03 in 1.19 in (1968)
Month to date precipitation 0.53  
Year to date precipitation 0.53  
Sea Level Pressure  
Sea Level Pressure 30.15 in    
Wind  
Wind Speed 5 mph (West)    
Max Wind Speed 14 mph    
Max Gust Speed 20 mph    
Visibility 10 miles    
Events      
T = Trace of Precipitation, MM = Missing Value Source: NWS Daily Summary

Daily Weather History Graph

Daily Weather History Graph

Search for Another Location

Airport or City:

Trip Planner

Search our weather history database for the weather conditions in past years. The results will help you decide how hot, cold, wet, or windy it might be!

Date:

Astronomy

Jan. 18, 2014 Rise Set
Actual Time 7:37 AM CST 5:59 PM CST
Civil Twilight 7:11 AM CST 6:25 PM CST
Nautical Twilight 6:41 AM CST 6:55 PM CST
Astronomical Twilight 6:12 AM CST 7:24 PM CST
Moon 8:30 PM CST (1/18) 8:48 AM CST (1/18)
Length of Visible Light 11h 14m
Length of Day
10h 21m
Waning Gibbous, 94% of the Moon is Illuminated
Jan 18
Waning Gibbous
Jan 23
Last Quarter
Jan 30
New
Feb 6
First Quarter
Feb 14
Full

Hourly Weather History & Observations

Time (CST) Temp. Windchill Dew Point Humidity Pressure Visibility Wind Dir Wind Speed Gust Speed Precip Events Conditions
12:15 AM 39.6 °F 36.3 °F 17.1 °F 40% 30.20 in 10.0 mi SSW 4.6 mph - N/A   Clear
12:35 AM 39.2 °F 35.0 °F 17.2 °F 41% 30.20 in 10.0 mi SSW 5.8 mph - N/A   Clear
12:55 AM 37.2 °F 31.9 °F 17.6 °F 45% 30.19 in 10.0 mi SSW 6.9 mph - N/A   Clear
1:15 AM 36.7 °F 32.0 °F 18.1 °F 47% 30.18 in 10.0 mi SSW 5.8 mph - N/A   Clear
1:35 AM 37.6 °F 31.6 °F 18.5 °F 46% 30.18 in 10.0 mi SSW 8.1 mph - N/A   Clear
1:55 AM 37.2 °F 33.6 °F 18.3 °F 46% 30.18 in 10.0 mi SW 4.6 mph - N/A   Clear
2:15 AM 36.3 °F 31.6 °F 18.0 °F 47% 30.17 in 10.0 mi SW 5.8 mph - N/A   Clear
2:35 AM 36.3 °F 33.7 °F 18.5 °F 48% 30.17 in 10.0 mi SSW 3.5 mph - N/A   Clear
2:55 AM 35.6 °F 30.7 °F 18.9 °F 51% 30.17 in 10.0 mi SSW 5.8 mph - N/A   Clear
3:15 AM 33.8 °F - 18.5 °F 54% 30.17 in 10.0 mi Calm Calm - N/A   Clear
3:35 AM 33.8 °F 30.8 °F 18.5 °F 54% 30.17 in 10.0 mi SSW 3.5 mph - N/A   Clear
3:55 AM 35.4 °F 30.5 °F 18.7 °F 51% 30.16 in 10.0 mi SSW 5.8 mph - N/A   Clear
4:15 AM 35.4 °F 31.5 °F 19.0 °F 51% 30.16 in 10.0 mi SSW 4.6 mph - N/A   Clear
4:35 AM 35.8 °F 30.9 °F 18.9 °F 50% 30.15 in 10.0 mi SSW 5.8 mph - N/A   Clear
4:55 AM 31.8 °F - 18.3 °F 57% 30.15 in 10.0 mi Calm Calm - N/A   Clear
5:15 AM 30.4 °F - 19.2 °F 63% 30.15 in 10.0 mi Calm Calm - N/A   Clear
5:35 AM 31.8 °F - 19.4 °F 60% 30.15 in 7.0 mi Calm Calm - N/A   Clear
5:55 AM 32.0 °F - 19.4 °F 60% 30.15 in 10.0 mi Calm Calm - N/A   Clear
6:15 AM 32.9 °F - 19.4 °F 58% 30.16 in 10.0 mi Calm Calm - N/A   Clear
6:35 AM 33.6 °F - 19.4 °F 56% 30.16 in 10.0 mi Calm Calm - N/A   Clear
6:55 AM 30.7 °F - 19.4 °F 63% 30.16 in 10.0 mi Calm Calm - N/A   Clear
7:15 AM 30.7 °F - 20.1 °F 65% 30.16 in 10.0 mi Calm Calm - N/A   Clear
7:35 AM 32.0 °F - 19.9 °F 61% 30.16 in 10.0 mi Calm Calm - N/A   Clear
7:55 AM 27.9 °F - 18.3 °F 67% 30.16 in 10.0 mi Calm Calm - N/A   Clear
8:15 AM 29.7 °F - 20.7 °F 69% 30.16 in 10.0 mi Calm Calm - N/A   Clear
8:35 AM 33.6 °F - 21.0 °F 60% 30.17 in 10.0 mi Calm Calm - N/A   Clear
8:55 AM 38.1 °F - 21.9 °F 52% 30.17 in 10.0 mi Calm Calm - N/A   Clear
9:15 AM 42.4 °F - 22.1 °F 44% 30.18 in 10.0 mi Calm Calm - N/A   Clear
9:35 AM 45.7 °F 44.4 °F 21.2 °F 38% 30.18 in 10.0 mi SSW 3.5 mph - N/A   Clear
9:55 AM 47.7 °F - 20.8 °F 35% 30.18 in 10.0 mi SW 3.5 mph - N/A   Clear
10:15 AM 50.2 °F - 21.6 °F 33% 30.19 in 10.0 mi SSW 3.5 mph - N/A   Clear
10:35 AM 52.2 °F - 22.5 °F 31% 30.18 in 10.0 mi SSW 6.9 mph - N/A   Clear
10:55 AM 54.1 °F - 24.8 °F 32% 30.18 in 10.0 mi South 4.6 mph - N/A   Clear
11:15 AM 56.5 °F - 26.8 °F 32% 30.17 in 10.0 mi SW 9.2 mph - N/A   Clear
11:35 AM 57.7 °F - 28.4 °F 33% 30.16 in 10.0 mi WSW 13.8 mph - N/A   Clear
11:55 AM 59.7 °F - 29.7 °F 32% 30.15 in 10.0 mi SW 9.2 mph 18.4 mph N/A   Clear
12:15 PM 60.4 °F - 30.2 °F 32% 30.14 in 10.0 mi WSW 9.2 mph - N/A   Clear
12:35 PM 61.7 °F - 30.6 °F 31% 30.12 in 10.0 mi SW 6.9 mph - N/A   Clear
12:55 PM 63.7 °F - 31.5 °F 30% 30.10 in 10.0 mi WSW 10.4 mph - N/A   Clear
1:15 PM 64.9 °F - 31.5 °F 29% 30.09 in 10.0 mi WSW 12.7 mph 18.4 mph N/A   Clear
1:35 PM 65.5 °F - 31.1 °F 28% 30.08 in 10.0 mi West 10.4 mph - N/A   Clear
1:55 PM 67.1 °F - 32.0 °F 27% 30.08 in 10.0 mi WSW 6.9 mph - N/A   Clear
2:15 PM 67.8 °F - 31.6 °F 26% 30.07 in 10.0 mi SSW 8.1 mph - N/A   Clear
2:35 PM 68.0 °F - 31.6 °F 26% 30.07 in 10.0 mi WSW 4.6 mph 19.6 mph N/A   Clear
2:55 PM 68.4 °F - 30.2 °F 24% 30.07 in 10.0 mi WSW 5.8 mph - N/A   Clear
3:15 PM 68.5 °F - 30.2 °F 24% 30.07 in 10.0 mi West 6.9 mph - N/A   Clear
3:35 PM 69.1 °F - 29.5 °F 23% 30.08 in 10.0 mi West 6.9 mph - N/A   Clear
3:55 PM 68.5 °F - 29.3 °F 23% 30.08 in 10.0 mi West 3.5 mph - N/A   Clear
4:15 PM 68.9 °F - 28.2 °F 22% 30.08 in 10.0 mi NNW 6.9 mph - N/A   Clear
4:35 PM 68.9 °F - 28.0 °F 22% 30.09 in 10.0 mi North 9.2 mph - N/A   Clear
4:55 PM 67.5 °F - 27.9 °F 23% 30.10 in 10.0 mi North 8.1 mph - N/A   Clear
5:15 PM 66.0 °F - 28.6 °F 25% 30.11 in 10.0 mi NNW 4.6 mph - N/A   Clear
5:35 PM 64.8 °F - 28.9 °F 26% 30.11 in 10.0 mi Calm Calm - N/A   Clear
5:55 PM 61.7 °F - 29.1 °F 29% 30.11 in 10.0 mi Calm Calm - N/A   Clear
6:15 PM 60.4 °F - 28.8 °F 30% 30.13 in 10.0 mi NNE 4.6 mph - N/A   Clear
6:35 PM 57.2 °F - 28.0 °F 33% 30.14 in 10.0 mi North 6.9 mph - N/A   Clear
6:55 PM 55.0 °F - 27.7 °F 35% 30.15 in 10.0 mi North 8.1 mph - N/A   Clear
7:15 PM 55.6 °F - 26.6 °F 33% 30.16 in 10.0 mi North 6.9 mph - N/A   Clear
7:35 PM 55.8 °F - 26.8 °F 33% 30.16 in 10.0 mi North 8.1 mph - N/A   Clear
7:55 PM 54.9 °F - 26.2 °F 33% 30.17 in 10.0 mi NNW 6.9 mph - N/A   Clear
8:15 PM 54.7 °F - 25.5 °F 32% 30.18 in 10.0 mi NNW 4.6 mph - N/A   Clear
8:35 PM 48.2 °F - 26.6 °F 43% 30.18 in 10.0 mi West 5.8 mph - N/A   Clear
8:55 PM 47.3 °F - 26.8 °F 45% 30.18 in 10.0 mi West 5.8 mph - N/A   Clear
9:15 PM 47.5 °F - 26.2 °F 44% 30.19 in 10.0 mi West 6.9 mph - N/A   Clear
9:35 PM 47.7 °F - 26.1 °F 43% 30.20 in 10.0 mi WNW 8.1 mph - N/A   Clear
9:55 PM 47.1 °F - 25.7 °F 43% 30.20 in 10.0 mi WNW 6.9 mph - N/A   Clear
10:15 PM 45.0 °F 40.6 °F 25.7 °F 47% 30.21 in 10.0 mi WNW 8.1 mph - N/A   Clear
10:35 PM 45.1 °F 40.3 °F 25.3 °F 46% 30.21 in 10.0 mi WNW 9.2 mph - N/A   Clear
10:55 PM 44.8 °F 41.0 °F 25.3 °F 47% 30.22 in 10.0 mi NW 6.9 mph - N/A   Clear
11:15 PM 43.9 °F 41.3 °F 25.0 °F 47% 30.23 in 10.0 mi NW 4.6 mph - N/A   Clear
11:35 PM 45.1 °F 42.8 °F 23.9 °F 43% 30.22 in 10.0 mi NNW 4.6 mph - N/A   Clear
11:55 PM 46.4 °F 43.5 °F 23.0 °F 40% 30.22 in 10.0 mi NNW 5.8 mph - N/A   Clear